Time,TemperatureF,DewpointF,PressureIn,WindDirection,WindDirectionDegrees,WindSpeedMPH,WindSpeedGustMPH,Humidity,HourlyPrecipIn,Conditions,Clouds,dailyrainin,SoftwareType,DateUTC
2013-03-19 00:00:00,28.8,24.6,30.21,ESE,115,0.0,5.0,84,0.00,,,0.00,meteohub,2013-03-19 04:00:00,
2013-03-19 00:05:00,28.6,24.6,30.21,ESE,122,2.0,5.0,85,0.00,,,0.00,meteohub,2013-03-19 04:05:00,
2013-03-19 00:10:00,28.4,25.0,30.20,ESE,119,0.0,5.0,87,0.00,,,0.00,meteohub,2013-03-19 04:10:00,
2013-03-19 00:15:00,28.2,25.2,30.20,SE,126,0.0,5.0,88,0.00,,,0.00,meteohub,2013-03-19 04:15:00,
2013-03-19 00:21:00,28.0,25.0,30.19,SE,134,2.0,5.0,88,0.00,,,0.00,meteohub,2013-03-19 04:21:00,
2013-03-19 00:26:00,27.9,25.0,30.19,ENE,73,2.0,5.0,89,0.00,,,0.00,meteohub,2013-03-19 04:26:00,
2013-03-19 00:31:00,27.9,25.0,30.19,ESE,121,2.0,7.0,89,0.00,,,0.00,meteohub,2013-03-19 04:31:00,
2013-03-19 00:36:00,27.9,25.0,30.18,ESE,121,1.0,7.0,89,0.00,,,0.00,meteohub,2013-03-19 04:36:00,
2013-03-19 00:41:00,27.9,25.3,30.18,ESE,121,2.0,5.0,90,0.00,,,0.00,meteohub,2013-03-19 04:41:00,
2013-03-19 00:46:00,27.7,25.2,30.17,SE,132,1.0,4.0,90,0.00,,,0.00,meteohub,2013-03-19 04:46:00,
2013-03-19 00:51:00,27.7,25.3,30.17,ESE,112,2.0,5.0,91,0.00,,,0.00,meteohub,2013-03-19 04:51:00,
2013-03-19 00:56:00,27.7,25.2,30.16,ESE,120,2.0,5.0,90,0.00,,,0.00,meteohub,2013-03-19 04:56:00,
2013-03-19 01:01:00,27.5,25.2,30.16,ESE,123,1.0,7.0,91,0.00,,,0.00,meteohub,2013-03-19 05:01:00,
2013-03-19 01:06:00,27.5,25.2,30.15,ESE,121,1.0,7.0,91,0.00,,,0.00,meteohub,2013-03-19 05:06:00,
2013-03-19 01:11:00,27.5,25.2,30.15,ESE,121,2.0,5.0,91,0.00,,,0.00,meteohub,2013-03-19 05:11:00,
2013-03-19 01:16:00,27.5,25.2,30.14,East,98,1.0,7.0,91,0.00,,,0.00,meteohub,2013-03-19 05:16:00,
2013-03-19 01:21:00,27.5,25.2,30.14,SE,128,2.0,7.0,91,0.00,,,0.00,meteohub,2013-03-19 05:21:00,
2013-03-19 01:26:00,27.5,25.2,30.14,ESE,119,3.0,7.0,91,0.00,,,0.00,meteohub,2013-03-19 05:26:00,
2013-03-19 01:32:00,27.3,25.0,30.13,ESE,111,1.0,5.0,91,0.00,,,0.00,meteohub,2013-03-19 05:32:00,
2013-03-19 01:37:00,27.3,25.0,30.13,East,94,1.0,7.0,91,0.00,,,0.00,meteohub,2013-03-19 05:37:00,
2013-03-19 01:42:00,27.3,25.0,30.13,SE,124,2.0,7.0,91,0.00,,,0.00,meteohub,2013-03-19 05:42:00,
2013-03-19 01:47:00,27.3,25.0,30.12,SSE,151,4.0,5.0,91,0.00,,,0.00,meteohub,2013-03-19 05:47:00,
2013-03-19 01:52:00,27.3,25.0,30.12,East,95,3.0,4.0,91,0.00,,,0.00,meteohub,2013-03-19 05:52:00,
2013-03-19 01:57:00,27.3,25.0,30.12,ESE,123,2.0,4.0,91,0.00,,,0.00,meteohub,2013-03-19 05:57:00,
2013-03-19 02:02:00,27.3,25.0,30.11,ESE,117,0.0,4.0,91,0.00,,,0.00,meteohub,2013-03-19 06:02:00,
2013-03-19 02:07:00,27.3,25.3,30.11,East,96,2.0,7.0,92,0.00,,,0.00,meteohub,2013-03-19 06:07:00,
2013-03-19 02:12:00,27.3,25.3,30.11,ESE,113,2.0,7.0,92,0.00,,,0.00,meteohub,2013-03-19 06:12:00,
2013-03-19 02:17:00,27.3,25.3,30.11,ESE,116,1.0,7.0,92,0.00,,,0.00,meteohub,2013-03-19 06:17:00,
2013-03-19 02:22:00,27.3,25.3,30.11,ESE,111,2.0,5.0,92,0.00,,,0.00,meteohub,2013-03-19 06:22:00,
2013-03-19 02:27:00,27.3,25.3,30.10,ESE,109,1.0,4.0,92,0.00,,,0.00,meteohub,2013-03-19 06:27:00,
2013-03-19 02:32:00,27.3,25.3,30.10,ESE,108,2.0,3.0,92,0.00,,,0.00,meteohub,2013-03-19 06:32:00,
2013-03-19 02:37:00,27.5,25.5,30.09,ESE,113,1.0,4.0,92,0.00,,,0.00,meteohub,2013-03-19 06:37:00,
2013-03-19 02:42:00,27.5,25.5,30.09,ESE,106,2.0,4.0,92,0.00,,,0.00,meteohub,2013-03-19 06:42:00,
2013-03-19 02:47:00,27.5,25.5,30.08,ESE,123,2.0,8.0,92,0.00,,,0.00,meteohub,2013-03-19 06:47:00,
2013-03-19 02:52:00,27.7,25.7,30.08,ESE,115,2.0,8.0,92,0.00,,,0.00,meteohub,2013-03-19 06:52:00,
2013-03-19 02:57:00,27.7,25.7,30.08,SE,132,1.0,8.0,92,0.00,,,0.00,meteohub,2013-03-19 06:57:00,
2013-03-19 03:02:00,27.7,25.7,30.08,SE,128,1.0,8.0,92,0.00,,,0.00,meteohub,2013-03-19 07:02:00,
2013-03-19 03:07:00,27.7,25.7,30.08,SE,128,1.0,7.0,92,0.01,,,0.01,meteohub,2013-03-19 07:07:00,
2013-03-19 03:12:00,27.7,25.7,30.07,SE,126,1.0,4.0,92,0.02,,,0.02,meteohub,2013-03-19 07:12:00,
2013-03-19 03:17:00,27.7,25.7,30.07,ESE,117,1.0,4.0,92,0.02,,,0.02,meteohub,2013-03-19 07:17:00,
2013-03-19 03:22:00,27.7,25.7,30.07,ESE,119,1.0,2.0,92,0.03,,,0.03,meteohub,2013-03-19 07:22:00,
2013-03-19 03:27:00,27.9,26.1,30.07,ESE,109,3.0,5.0,93,0.04,,,0.04,meteohub,2013-03-19 07:27:00,
2013-03-19 03:32:00,27.9,26.1,30.07,ESE,115,1.0,5.0,93,0.04,,,0.04,meteohub,2013-03-19 07:32:00,
2013-03-19 03:37:00,27.9,26.1,30.06,ESE,115,0.0,5.0,93,0.05,,,0.05,meteohub,2013-03-19 07:37:00,
2013-03-19 03:42:00,27.9,26.1,30.06,SE,126,2.0,5.0,93,0.06,,,0.05,meteohub,2013-03-19 07:42:00,
2013-03-19 03:47:00,27.9,26.1,30.06,ESE,112,1.0,3.0,93,0.06,,,0.06,meteohub,2013-03-19 07:47:00,
2013-03-19 03:52:00,27.9,26.1,30.06,ESE,112,0.0,3.0,93,0.06,,,0.06,meteohub,2013-03-19 07:52:00,
2013-03-19 03:57:00,27.9,26.1,30.05,ESE,112,0.0,3.0,93,0.06,,,0.06,meteohub,2013-03-19 07:57:00,
2013-03-19 04:02:00,28.0,26.2,30.05,ESE,112,0.0,2.0,93,0.06,,,0.07,meteohub,2013-03-19 08:02:00,
2013-03-19 04:07:00,27.9,26.1,30.04,ESE,112,0.0,2.0,93,0.07,,,0.08,meteohub,2013-03-19 08:07:00,
2013-03-19 04:12:00,27.9,26.1,30.04,ESE,112,0.0,2.0,93,0.06,,,0.08,meteohub,2013-03-19 08:12:00,
2013-03-19 04:18:00,27.9,26.1,30.04,SE,130,1.0,2.0,93,0.07,,,0.09,meteohub,2013-03-19 08:18:00,
2013-03-19 04:23:00,27.9,26.1,30.04,ESE,122,0.0,3.0,93,0.07,,,0.10,meteohub,2013-03-19 08:23:00,
2013-03-19 04:28:00,28.0,26.2,30.04,ESE,122,0.0,3.0,93,0.06,,,0.10,meteohub,2013-03-19 08:28:00,
2013-03-19 04:33:00,28.0,26.2,30.03,ESE,122,0.0,3.0,93,0.07,,,0.11,meteohub,2013-03-19 08:33:00,
2013-03-19 04:38:00,28.0,26.2,30.03,ESE,122,1.0,2.0,93,0.07,,,0.12,meteohub,2013-03-19 08:38:00,
2013-03-19 04:43:00,28.0,26.2,30.03,ESE,122,0.0,2.0,93,0.06,,,0.12,meteohub,2013-03-19 08:43:00,
2013-03-19 04:48:00,28.0,26.2,30.04,ESE,122,0.0,2.0,93,0.07,,,0.13,meteohub,2013-03-19 08:48:00,
2013-03-19 04:53:00,28.2,26.4,30.04,ESE,121,0.0,2.0,93,0.08,,,0.14,meteohub,2013-03-19 08:53:00,
2013-03-19 04:58:00,28.2,26.4,30.04,ESE,121,1.0,2.0,93,0.08,,,0.15,meteohub,2013-03-19 08:58:00,
2013-03-19 05:03:00,28.4,27.0,30.03,East,79,0.0,2.0,94,0.09,,,0.16,meteohub,2013-03-19 09:03:00,
2013-03-19 05:08:00,28.6,26.8,30.03,SE,126,0.0,3.0,93,0.08,,,0.16,meteohub,2013-03-19 09:08:00,
2013-03-19 05:13:00,28.6,26.8,30.03,East,101,3.0,3.0,93,0.09,,,0.17,meteohub,2013-03-19 09:13:00,
2013-03-19 05:18:00,28.6,26.8,30.03,ESE,119,2.0,4.0,93,0.08,,,0.17,meteohub,2013-03-19 09:18:00,
2013-03-19 05:23:00,28.8,27.0,30.02,ESE,112,1.0,5.0,93,0.08,,,0.18,meteohub,2013-03-19 09:23:00,
2013-03-19 05:29:00,28.8,27.0,30.02,East,91,1.0,5.0,93,0.07,,,0.18,meteohub,2013-03-19 09:29:00,
2013-03-19 05:34:00,28.8,27.0,30.02,East,91,1.0,5.0,93,0.07,,,0.19,meteohub,2013-03-19 09:34:00,
2013-03-19 05:39:00,28.9,27.1,30.02,SE,135,1.0,3.0,93,0.08,,,0.20,meteohub,2013-03-19 09:39:00,
2013-03-19 05:41:00,28.9,27.1,30.01,ESE,115,1.0,4.0,93,0.08,,,0.20,meteohub,2013-03-19 09:41:00,
2013-03-19 05:47:00,28.9,27.1,30.01,South,169,0.0,4.0,93,0.07,,,0.20,meteohub,2013-03-19 09:47:00,
2013-03-19 05:52:00,28.9,27.1,30.01,East,101,1.0,4.0,93,0.07,,,0.21,meteohub,2013-03-19 09:52:00,
2013-03-19 05:57:00,29.1,27.3,30.00,ESE,112,3.0,3.0,93,0.07,,,0.22,meteohub,2013-03-19 09:57:00,
2013-03-19 06:02:00,29.1,27.3,30.00,SE,126,5.0,5.0,93,0.06,,,0.22,meteohub,2013-03-19 10:02:00,
2013-03-19 06:07:00,29.3,27.5,30.00,SE,136,2.0,7.0,93,0.06,,,0.22,meteohub,2013-03-19 10:07:00,
2013-03-19 06:12:00,29.5,28.0,29.99,ESE,119,3.0,7.0,94,0.06,,,0.23,meteohub,2013-03-19 10:12:00,
2013-03-19 06:17:00,29.7,27.9,29.99,ESE,116,3.0,10.0,93,0.06,,,0.24,meteohub,2013-03-19 10:17:00,
2013-03-19 06:22:00,29.7,27.9,29.99,ESE,123,4.0,10.0,93,0.06,,,0.24,meteohub,2013-03-19 10:22:00,
2013-03-19 06:27:00,29.8,28.0,29.99,ESE,105,2.0,10.0,93,0.06,,,0.25,meteohub,2013-03-19 10:27:00,
2013-03-19 06:32:00,29.8,28.0,29.99,East,101,2.0,7.0,93,0.07,,,0.26,meteohub,2013-03-19 10:32:00,
2013-03-19 06:37:00,30.0,28.2,29.99,ESE,108,1.0,5.0,93,0.06,,,0.26,meteohub,2013-03-19 10:37:00,
2013-03-19 06:42:00,30.0,28.2,29.98,East,101,0.0,5.0,93,0.06,,,0.26,meteohub,2013-03-19 10:42:00,
2013-03-19 06:47:00,30.0,28.2,29.98,ESE,122,2.0,7.0,93,0.07,,,0.27,meteohub,2013-03-19 10:47:00,
2013-03-19 06:52:00,30.0,28.2,29.98,ESE,115,3.0,7.0,93,0.06,,,0.27,meteohub,2013-03-19 10:52:00,
2013-03-19 06:57:00,30.2,28.4,29.98,ESE,123,4.0,6.0,93,0.05,,,0.27,meteohub,2013-03-19 10:57:00,
2013-03-19 07:02:00,30.2,28.4,29.98,SE,126,4.0,7.0,93,0.06,,,0.28,meteohub,2013-03-19 11:02:00,
2013-03-19 07:07:00,30.4,28.6,29.98,East,95,1.0,7.0,93,0.06,,,0.28,meteohub,2013-03-19 11:07:00,
2013-03-19 07:12:00,30.4,28.6,29.97,ENE,72,2.0,7.0,93,0.05,,,0.28,meteohub,2013-03-19 11:12:00,
2013-03-19 07:17:00,30.4,28.6,29.97,ESE,102,1.0,9.0,93,0.05,,,0.29,meteohub,2013-03-19 11:17:00,
2013-03-19 07:22:00,30.6,28.8,29.97,ESE,102,4.0,9.0,93,0.05,,,0.29,meteohub,2013-03-19 11:22:00,
2013-03-19 07:27:00,30.6,28.8,29.96,ESE,123,4.0,9.0,93,0.05,,,0.30,meteohub,2013-03-19 11:27:00,
2013-03-19 07:32:00,30.6,28.8,29.96,ENE,74,1.0,9.0,93,0.04,,,0.30,meteohub,2013-03-19 11:32:00,
2013-03-19 07:37:00,30.6,28.8,29.96,ESE,118,3.0,9.0,93,0.04,,,0.30,meteohub,2013-03-19 11:37:00,
2013-03-19 07:42:00,30.7,28.9,29.96,ESE,105,2.0,9.0,93,0.04,,,0.31,meteohub,2013-03-19 11:42:00,
2013-03-19 07:48:00,30.7,28.9,29.95,East,96,2.0,5.0,93,0.05,,,0.31,meteohub,2013-03-19 11:48:00,
2013-03-19 07:53:00,30.7,28.9,29.95,East,100,1.0,7.0,93,0.05,,,0.32,meteohub,2013-03-19 11:53:00,
2013-03-19 07:58:00,30.9,29.1,29.95,SE,128,4.0,8.0,93,0.05,,,0.32,meteohub,2013-03-19 11:58:00,
2013-03-19 08:03:00,30.9,29.1,29.95,ESE,103,3.0,8.0,93,0.04,,,0.32,meteohub,2013-03-19 12:03:00,
2013-03-19 08:08:00,31.1,29.3,29.94,ESE,105,2.0,7.0,93,0.05,,,0.33,meteohub,2013-03-19 12:08:00,
2013-03-19 08:13:00,31.3,29.5,29.93,SSE,147,11.0,11.0,93,0.06,,,0.34,meteohub,2013-03-19 12:13:00,
2013-03-19 08:18:00,31.3,29.5,29.93,ESE,103,2.0,10.0,93,0.05,,,0.34,meteohub,2013-03-19 12:18:00,
2013-03-19 08:23:00,31.3,29.5,29.93,SE,129,3.0,14.0,93,0.05,,,0.34,meteohub,2013-03-19 12:23:00,
2013-03-19 08:28:00,31.5,29.7,29.93,ESE,115,3.0,14.0,93,0.05,,,0.35,meteohub,2013-03-19 12:28:00,
2013-03-19 08:33:00,31.5,29.7,29.93,ESE,119,3.0,10.0,93,0.05,,,0.35,meteohub,2013-03-19 12:33:00,
2013-03-19 08:38:00,31.5,29.7,29.92,East,93,2.0,9.0,93,0.05,,,0.36,meteohub,2013-03-19 12:38:00,
2013-03-19 08:43:00,31.5,29.7,29.92,ESE,110,1.0,9.0,93,0.05,,,0.36,meteohub,2013-03-19 12:43:00,
2013-03-19 08:48:00,31.5,29.7,29.92,SE,144,4.0,9.0,93,0.04,,,0.36,meteohub,2013-03-19 12:48:00,
2013-03-19 08:53:00,31.5,29.7,29.91,SSE,153,2.0,9.0,93,0.05,,,0.37,meteohub,2013-03-19 12:53:00,
2013-03-19 08:58:00,31.5,29.7,29.91,East,92,2.0,9.0,93,0.06,,,0.38,meteohub,2013-03-19 12:58:00,
2013-03-19 09:03:00,31.6,29.8,29.90,ENE,75,2.0,9.0,93,0.05,,,0.38,meteohub,2013-03-19 13:03:00,
2013-03-19 09:08:00,31.6,29.8,29.91,East,82,1.0,9.0,93,0.05,,,0.38,meteohub,2013-03-19 13:08:00,
2013-03-19 09:13:00,31.8,30.0,29.91,SE,128,2.0,9.0,93,0.05,,,0.38,meteohub,2013-03-19 13:13:00,
2013-03-19 09:18:00,31.8,30.0,29.90,NE,44,3.0,9.0,93,0.05,,,0.39,meteohub,2013-03-19 13:18:00,
2013-03-19 09:23:00,31.8,30.4,29.90,ESE,103,3.0,9.0,94,0.04,,,0.39,meteohub,2013-03-19 13:23:00,
2013-03-19 09:28:00,31.8,30.4,29.90,ENE,76,1.0,9.0,94,0.05,,,0.40,meteohub,2013-03-19 13:28:00,
2013-03-19 09:33:00,31.8,30.4,29.89,ESE,105,4.0,8.0,94,0.04,,,0.40,meteohub,2013-03-19 13:33:00,
2013-03-19 09:38:00,31.8,30.4,29.89,SE,126,3.0,9.0,94,0.04,,,0.40,meteohub,2013-03-19 13:38:00,
2013-03-19 09:43:00,32.2,30.6,29.88,ESE,117,4.0,9.0,94,0.05,,,0.41,meteohub,2013-03-19 13:43:00,
2013-03-19 09:48:00,32.2,30.4,29.88,ESE,121,2.0,9.0,93,0.04,,,0.41,meteohub,2013-03-19 13:48:00,
2013-03-19 09:53:00,32.4,30.6,29.88,ESE,115,3.0,8.0,93,0.05,,,0.42,meteohub,2013-03-19 13:53:00,
2013-03-19 09:58:00,32.4,30.7,29.88,East,94,1.0,7.0,94,0.04,,,0.42,meteohub,2013-03-19 13:58:00,
2013-03-19 10:03:00,32.4,30.7,29.88,SSE,154,0.0,7.0,94,0.04,,,0.42,meteohub,2013-03-19 14:03:00,
2013-03-19 10:08:00,32.4,30.7,29.87,ESE,121,2.0,5.0,94,0.05,,,0.43,meteohub,2013-03-19 14:08:00,
2013-03-19 10:13:00,32.4,30.7,29.87,ESE,116,2.0,5.0,94,0.04,,,0.43,meteohub,2013-03-19 14:13:00,
2013-03-19 10:18:00,32.4,30.7,29.87,ESE,117,1.0,5.0,94,0.04,,,0.43,meteohub,2013-03-19 14:18:00,
2013-03-19 10:23:00,32.5,30.9,29.86,ENE,71,1.0,4.0,94,0.04,,,0.44,meteohub,2013-03-19 14:23:00,
2013-03-19 10:28:00,32.5,30.9,29.86,SE,140,1.0,4.0,94,0.04,,,0.44,meteohub,2013-03-19 14:28:00,
2013-03-19 10:34:00,32.5,30.9,29.86,ESE,111,4.0,4.0,94,0.04,,,0.44,meteohub,2013-03-19 14:34:00,
2013-03-19 10:39:00,32.5,30.9,29.86,ESE,123,7.0,7.0,94,0.05,,,0.45,meteohub,2013-03-19 14:39:00,
2013-03-19 10:44:00,32.5,30.9,29.86,East,97,1.0,8.0,94,0.04,,,0.45,meteohub,2013-03-19 14:44:00,
2013-03-19 10:49:00,32.5,30.9,29.86,ESE,117,1.0,8.0,94,0.04,,,0.45,meteohub,2013-03-19 14:49:00,
2013-03-19 10:54:00,32.5,30.9,29.85,East,88,0.0,8.0,94,0.03,,,0.45,meteohub,2013-03-19 14:54:00,
2013-03-19 10:59:00,32.5,30.9,29.84,East,99,5.0,5.0,94,0.03,,,0.45,meteohub,2013-03-19 14:59:00,
2013-03-19 11:04:00,32.7,31.1,29.84,ESE,111,1.0,9.0,94,0.02,,,0.45,meteohub,2013-03-19 15:04:00,
2013-03-19 11:09:00,32.5,30.9,29.84,East,90,1.0,9.0,94,0.02,,,0.45,meteohub,2013-03-19 15:09:00,
2013-03-19 11:14:00,32.7,31.1,29.84,East,94,1.0,9.0,94,0.02,,,0.45,meteohub,2013-03-19 15:14:00,
2013-03-19 11:19:00,32.7,31.1,29.83,SE,127,0.0,7.0,94,0.03,,,0.46,meteohub,2013-03-19 15:19:00,
2013-03-19 11:24:00,32.7,31.1,29.83,East,96,1.0,7.0,94,0.02,,,0.46,meteohub,2013-03-19 15:24:00,
2013-03-19 11:29:00,32.7,31.1,29.81,ESE,107,2.0,9.0,94,0.02,,,0.46,meteohub,2013-03-19 15:29:00,
2013-03-19 11:34:00,32.9,31.3,29.81,East,96,2.0,9.0,94,0.02,,,0.46,meteohub,2013-03-19 15:34:00,
2013-03-19 11:39:00,33.1,31.5,29.81,East,97,1.0,6.0,94,0.01,,,0.46,meteohub,2013-03-19 15:39:00,
2013-03-19 11:44:00,33.1,31.5,29.80,South,190,0.0,6.0,94,0.01,,,0.46,meteohub,2013-03-19 15:44:00,
2013-03-19 11:49:00,33.1,31.5,29.80,ESE,109,1.0,5.0,94,0.01,,,0.46,meteohub,2013-03-19 15:49:00,
2013-03-19 11:54:00,33.1,31.5,29.80,SE,134,2.0,3.0,94,0.01,,,0.46,meteohub,2013-03-19 15:54:00,
2013-03-19 11:59:00,33.1,31.5,29.79,ESE,119,0.0,4.0,94,0.01,,,0.46,meteohub,2013-03-19 15:59:00,
2013-03-19 12:04:00,33.3,32.0,29.78,NE,53,0.0,6.0,95,0.01,,,0.46,meteohub,2013-03-19 16:04:00,
2013-03-19 12:09:00,33.3,31.6,29.78,ESE,108,3.0,6.0,94,0.01,,,0.46,meteohub,2013-03-19 16:09:00,
2013-03-19 12:14:00,33.3,32.0,29.78,East,98,1.0,6.0,95,0.01,,,0.46,meteohub,2013-03-19 16:14:00,
2013-03-19 12:19:00,33.3,31.6,29.78,ESE,108,2.0,7.0,94,0.00,,,0.46,meteohub,2013-03-19 16:19:00,
2013-03-19 12:24:00,33.4,31.8,29.78,ESE,109,0.0,7.0,94,0.00,,,0.46,meteohub,2013-03-19 16:24:00,
2013-03-19 12:29:00,33.4,31.8,29.77,ESE,121,2.0,7.0,94,0.00,,,0.46,meteohub,2013-03-19 16:29:00,
2013-03-19 12:34:00,33.4,32.2,29.78,ENE,75,1.0,7.0,95,0.00,,,0.46,meteohub,2013-03-19 16:34:00,
2013-03-19 12:39:00,33.4,32.2,29.77,ENE,74,1.0,4.0,95,0.00,,,0.46,meteohub,2013-03-19 16:39:00,
2013-03-19 12:44:00,33.4,32.2,29.76,ESE,108,1.0,3.0,95,0.01,,,0.46,meteohub,2013-03-19 16:44:00,
2013-03-19 12:49:00,33.4,32.2,29.75,SE,136,2.0,3.0,95,0.01,,,0.47,meteohub,2013-03-19 16:49:00,
2013-03-19 12:54:00,33.6,32.0,29.75,ENE,71,2.0,4.0,94,0.01,,,0.47,meteohub,2013-03-19 16:54:00,
2013-03-19 12:59:00,33.6,32.4,29.74,ESE,123,1.0,5.0,95,0.01,,,0.47,meteohub,2013-03-19 16:59:00,
2013-03-19 13:04:00,33.8,32.5,29.74,East,84,0.0,11.0,95,0.01,,,0.47,meteohub,2013-03-19 17:04:00,
2013-03-19 13:09:00,33.8,32.5,29.73,SE,125,3.0,11.0,95,0.02,,,0.48,meteohub,2013-03-19 17:09:00,
2013-03-19 13:14:00,34.0,32.7,29.73,SE,128,4.0,11.0,95,0.02,,,0.48,meteohub,2013-03-19 17:14:00,
2013-03-19 13:19:00,34.0,32.7,29.73,East,90,2.0,6.0,95,0.02,,,0.48,meteohub,2013-03-19 17:19:00,
2013-03-19 13:24:00,34.0,32.7,29.73,East,92,1.0,6.0,95,0.02,,,0.48,meteohub,2013-03-19 17:24:00,
2013-03-19 13:29:00,34.0,32.7,29.72,East,92,1.0,6.0,95,0.02,,,0.48,meteohub,2013-03-19 17:29:00,
2013-03-19 13:34:00,33.8,32.5,29.71,East,92,3.0,3.0,95,0.02,,,0.48,meteohub,2013-03-19 17:34:00,
2013-03-19 13:39:00,33.8,32.5,29.72,WSW,257,0.0,4.0,95,0.02,,,0.48,meteohub,2013-03-19 17:39:00,
2013-03-19 13:44:00,33.8,32.5,29.71,East,101,2.0,4.0,95,0.01,,,0.48,meteohub,2013-03-19 17:44:00,
2013-03-19 13:49:00,33.8,32.5,29.70,ESE,117,1.0,4.0,95,0.01,,,0.48,meteohub,2013-03-19 17:49:00,
2013-03-19 13:55:00,33.8,32.5,29.70,SE,135,0.0,4.0,95,0.01,,,0.48,meteohub,2013-03-19 17:55:00,
2013-03-19 14:00:00,34.0,32.7,29.70,ENE,78,2.0,4.0,95,0.02,,,0.49,meteohub,2013-03-19 18:00:00,
2013-03-19 14:05:00,34.0,32.7,29.70,ENE,61,0.0,5.0,95,0.04,,,0.51,meteohub,2013-03-19 18:05:00,
2013-03-19 14:10:00,34.0,32.7,29.71,NNE,28,1.0,5.0,95,0.04,,,0.52,meteohub,2013-03-19 18:10:00,
2013-03-19 14:15:00,34.0,32.7,29.74,WNW,296,3.0,5.0,95,0.05,,,0.53,meteohub,2013-03-19 18:15:00,
2013-03-19 14:20:00,33.8,32.5,29.75,NW,315,2.0,2.0,95,0.06,,,0.54,meteohub,2013-03-19 18:20:00,
2013-03-19 14:25:00,33.8,32.5,29.77,NW,317,1.0,5.0,95,0.06,,,0.55,meteohub,2013-03-19 18:25:00,
2013-03-19 14:30:00,33.4,32.2,29.74,NW,320,0.0,5.0,95,0.07,,,0.56,meteohub,2013-03-19 18:30:00,
2013-03-19 14:35:00,33.3,32.0,29.73,WNW,286,3.0,5.0,95,0.08,,,0.56,meteohub,2013-03-19 18:35:00,
2013-03-19 14:40:00,33.1,31.8,29.73,WNW,303,1.0,5.0,95,0.08,,,0.56,meteohub,2013-03-19 18:40:00,
2013-03-19 14:45:00,32.7,31.5,29.72,WNW,303,3.0,6.0,95,0.08,,,0.56,meteohub,2013-03-19 18:45:00,
2013-03-19 14:50:00,32.5,31.3,29.72,NW,311,0.0,6.0,95,0.08,,,0.57,meteohub,2013-03-19 18:50:00,
2013-03-19 14:55:00,32.5,31.3,29.72,West,275,1.0,6.0,95,0.08,,,0.58,meteohub,2013-03-19 18:55:00,
2013-03-19 15:00:00,32.5,31.3,29.72,WNW,287,2.0,4.0,95,0.07,,,0.59,meteohub,2013-03-19 19:00:00,
2013-03-19 15:05:00,32.5,31.3,29.71,WNW,294,0.0,5.0,95,0.08,,,0.60,meteohub,2013-03-19 19:05:00,
2013-03-19 15:10:00,32.5,31.3,29.71,WNW,283,2.0,5.0,95,0.08,,,0.61,meteohub,2013-03-19 19:10:00,
2013-03-19 15:15:00,32.4,31.1,29.72,NW,310,1.0,3.0,95,0.08,,,0.62,meteohub,2013-03-19 19:15:00,
2013-03-19 15:20:00,32.4,31.1,29.72,WNW,296,0.0,5.0,95,0.08,,,0.63,meteohub,2013-03-19 19:20:00,
2013-03-19 15:25:00,32.4,31.1,29.71,WNW,300,0.0,5.0,95,0.07,,,0.63,meteohub,2013-03-19 19:25:00,
2013-03-19 15:30:00,32.4,31.1,29.68,North,11,0.0,5.0,95,0.07,,,0.63,meteohub,2013-03-19 19:30:00,
2013-03-19 15:35:00,32.2,30.9,29.65,ENE,69,1.0,4.0,95,0.08,,,0.64,meteohub,2013-03-19 19:35:00,
2013-03-19 15:40:00,32.4,31.1,29.63,NNE,13,1.0,3.0,95,0.08,,,0.64,meteohub,2013-03-19 19:40:00,
2013-03-19 15:45:00,32.5,31.3,29.64,NNE,13,0.0,4.0,95,0.07,,,0.64,meteohub,2013-03-19 19:45:00,
2013-03-19 15:50:00,32.5,31.3,29.65,WSW,252,0.0,4.0,95,0.07,,,0.65,meteohub,2013-03-19 19:50:00,
2013-03-19 15:55:00,32.7,31.5,29.65,WNW,302,0.0,3.0,95,0.08,,,0.66,meteohub,2013-03-19 19:55:00,
2013-03-19 16:00:00,33.1,31.8,29.65,ENE,63,1.0,5.0,95,0.06,,,0.66,meteohub,2013-03-19 20:00:00,
2013-03-19 16:05:00,33.1,31.8,29.65,NW,311,0.0,5.0,95,0.05,,,0.66,meteohub,2013-03-19 20:05:00,
2013-03-19 16:10:00,33.3,32.0,29.65,ENE,74,0.0,5.0,95,0.04,,,0.66,meteohub,2013-03-19 20:10:00,
2013-03-19 16:15:00,33.3,32.0,29.64,NE,55,0.0,3.0,95,0.04,,,0.66,meteohub,2013-03-19 20:15:00,
2013-03-19 16:20:00,33.1,31.8,29.63,North,355,1.0,4.0,95,0.03,,,0.66,meteohub,2013-03-19 20:20:00,
2013-03-19 16:25:00,33.3,32.0,29.63,North,0,0.0,4.0,95,0.03,,,0.66,meteohub,2013-03-19 20:25:00,
2013-03-19 16:30:00,33.4,32.2,29.62,NW,324,2.0,4.0,95,0.02,,,0.66,meteohub,2013-03-19 20:30:00,
2013-03-19 16:35:00,33.3,32.0,29.62,WNW,302,1.0,3.0,95,0.02,,,0.66,meteohub,2013-03-19 20:35:00,
2013-03-19 16:40:00,33.4,32.2,29.62,ESE,119,1.0,3.0,95,0.02,,,0.66,meteohub,2013-03-19 20:40:00,
2013-03-19 16:45:00,33.3,32.0,29.62,NW,307,1.0,3.0,95,0.01,,,0.66,meteohub,2013-03-19 20:45:00,
2013-03-19 16:47:00,33.3,32.0,29.62,SSW,196,0.0,3.0,95,0.01,,,0.66,meteohub,2013-03-19 20:47:00,
2013-03-19 16:52:00,33.3,32.0,29.62,NNW,347,1.0,3.0,95,0.01,,,0.66,meteohub,2013-03-19 20:52:00,
2013-03-19 17:02:00,33.1,31.8,29.62,NW,306,1.0,4.0,95,0.00,,,0.66,meteohub,2013-03-19 21:02:00,
2013-03-19 17:07:00,33.1,31.8,29.62,ENE,75,1.0,4.0,95,0.00,,,0.66,meteohub,2013-03-19 21:07:00,
2013-03-19 17:12:00,33.1,31.8,29.63,WNW,297,0.0,6.0,95,0.00,,,0.66,meteohub,2013-03-19 21:12:00,
2013-03-19 17:17:00,33.1,31.8,29.63,NW,319,0.0,6.0,95,0.00,,,0.66,meteohub,2013-03-19 21:17:00,
2013-03-19 17:22:00,33.1,31.5,29.62,NW,319,1.0,4.0,94,0.00,,,0.66,meteohub,2013-03-19 21:22:00,
2013-03-19 17:27:00,33.1,31.5,29.62,WNW,284,0.0,4.0,94,0.00,,,0.66,meteohub,2013-03-19 21:27:00,
2013-03-19 17:32:00,33.1,31.5,29.62,West,269,0.0,3.0,94,0.00,,,0.66,meteohub,2013-03-19 21:32:00,
2013-03-19 17:37:00,32.9,31.3,29.63,ESE,103,0.0,3.0,94,0.00,,,0.66,meteohub,2013-03-19 21:37:00,
2013-03-19 17:42:00,32.9,31.3,29.63,NNW,333,0.0,3.0,94,0.00,,,0.66,meteohub,2013-03-19 21:42:00,
2013-03-19 17:47:00,32.7,31.5,29.64,NNW,339,1.0,5.0,95,0.00,,,0.66,meteohub,2013-03-19 21:47:00,
2013-03-19 17:52:00,32.7,31.5,29.63,NW,304,2.0,5.0,95,0.00,,,0.66,meteohub,2013-03-19 21:52:00,
2013-03-19 17:57:00,32.7,31.5,29.63,WNW,286,0.0,6.0,95,0.00,,,0.66,meteohub,2013-03-19 21:57:00,
2013-03-19 18:02:00,32.7,31.5,29.63,WNW,286,0.0,6.0,95,0.00,,,0.66,meteohub,2013-03-19 22:02:00,
2013-03-19 18:07:00,32.5,31.3,29.63,West,269,2.0,6.0,95,0.00,,,0.66,meteohub,2013-03-19 22:07:00,
2013-03-19 18:12:00,32.5,31.3,29.63,NW,305,1.0,3.0,95,0.00,,,0.66,meteohub,2013-03-19 22:12:00,
2013-03-19 18:17:00,32.4,31.1,29.64,NW,317,2.0,3.0,95,0.00,,,0.66,meteohub,2013-03-19 22:17:00,
2013-03-19 18:22:00,32.4,31.1,29.64,WNW,285,0.0,4.0,95,0.00,,,0.66,meteohub,2013-03-19 22:22:00,
2013-03-19 18:27:00,32.4,31.1,29.64,WNW,286,0.0,4.0,95,0.00,,,0.66,meteohub,2013-03-19 22:27:00,
2013-03-19 18:32:00,32.2,30.9,29.64,WNW,285,1.0,4.0,95,0.00,,,0.66,meteohub,2013-03-19 22:32:00,
2013-03-19 18:38:00,32.2,30.9,29.65,NW,306,0.0,4.0,95,0.00,,,0.66,meteohub,2013-03-19 22:38:00,
2013-03-19 18:43:00,32.2,30.9,29.65,NW,309,1.0,4.0,95,0.00,,,0.66,meteohub,2013-03-19 22:43:00,
2013-03-19 18:48:00,32.2,30.9,29.65,NW,324,1.0,4.0,95,0.00,,,0.66,meteohub,2013-03-19 22:48:00,
2013-03-19 18:53:00,32.0,30.7,29.65,NNW,327,0.0,5.0,95,0.00,,,0.66,meteohub,2013-03-19 22:53:00,
2013-03-19 18:58:00,32.0,30.7,29.65,NW,304,0.0,5.0,95,0.00,,,0.66,meteohub,2013-03-19 22:58:00,
2013-03-19 19:03:00,32.0,30.7,29.65,NW,320,0.0,5.0,95,0.00,,,0.66,meteohub,2013-03-19 23:03:00,
2013-03-19 19:08:00,32.0,30.7,29.65,NW,320,1.0,4.0,95,0.00,,,0.66,meteohub,2013-03-19 23:08:00,
2013-03-19 19:13:00,31.8,30.6,29.65,NW,320,0.0,3.0,95,0.00,,,0.66,meteohub,2013-03-19 23:13:00,
2013-03-19 19:18:00,31.8,30.6,29.65,NW,320,2.0,2.0,95,0.00,,,0.66,meteohub,2013-03-19 23:18:00,
2013-03-19 19:23:00,31.8,30.6,29.65,NW,319,1.0,3.0,95,0.00,,,0.66,meteohub,2013-03-19 23:23:00,
2013-03-19 19:28:00,31.8,30.6,29.65,NW,324,2.0,4.0,95,0.00,,,0.66,meteohub,2013-03-19 23:28:00,
2013-03-19 19:33:00,31.8,30.6,29.65,NNW,330,2.0,4.0,95,0.00,,,0.66,meteohub,2013-03-19 23:33:00,
2013-03-19 19:38:00,31.8,30.6,29.65,NW,311,2.0,4.0,95,0.00,,,0.66,meteohub,2013-03-19 23:38:00,
2013-03-19 19:43:00,31.6,30.4,29.64,NW,312,1.0,4.0,95,0.00,,,0.66,meteohub,2013-03-19 23:43:00,
2013-03-19 19:48:00,31.6,30.4,29.64,NNW,327,0.0,2.0,95,0.00,,,0.66,meteohub,2013-03-19 23:48:00,
2013-03-19 19:53:00,31.6,30.4,29.65,NNW,335,1.0,3.0,95,0.00,,,0.66,meteohub,2013-03-19 23:53:00,
2013-03-19 19:58:00,31.6,30.4,29.65,WNW,300,1.0,3.0,95,0.01,,,0.67,meteohub,2013-03-19 23:58:00,
2013-03-19 20:03:00,31.6,30.4,29.65,NW,311,1.0,4.0,95,0.01,,,0.67,meteohub,2013-03-20 00:03:00,
2013-03-19 20:08:00,31.5,30.2,29.65,NW,321,2.0,4.0,95,0.01,,,0.67,meteohub,2013-03-20 00:08:00,
2013-03-19 20:13:00,31.5,30.2,29.65,NW,306,1.0,4.0,95,0.01,,,0.67,meteohub,2013-03-20 00:13:00,
2013-03-19 20:18:00,31.5,30.2,29.66,WNW,296,2.0,4.0,95,0.01,,,0.67,meteohub,2013-03-20 00:18:00,
2013-03-19 20:23:00,31.5,30.2,29.67,NW,309,2.0,4.0,95,0.01,,,0.67,meteohub,2013-03-20 00:23:00,
2013-03-19 20:28:00,31.5,30.2,29.67,NNW,329,2.0,4.0,95,0.01,,,0.67,meteohub,2013-03-20 00:28:00,
2013-03-19 20:33:00,31.5,30.2,29.67,WNW,290,2.0,4.0,95,0.01,,,0.67,meteohub,2013-03-20 00:33:00,
2013-03-19 20:38:00,31.3,30.0,29.67,NW,314,1.0,4.0,95,0.01,,,0.67,meteohub,2013-03-20 00:38:00,
2013-03-19 20:43:00,31.3,30.0,29.68,NW,314,0.0,4.0,95,0.01,,,0.67,meteohub,2013-03-20 00:43:00,
2013-03-19 20:48:00,31.3,30.0,29.68,NW,312,2.0,4.0,95,0.01,,,0.67,meteohub,2013-03-20 00:48:00,
2013-03-19 20:53:00,31.1,29.8,29.68,NW,305,2.0,3.0,95,0.01,,,0.67,meteohub,2013-03-20 00:53:00,
2013-03-19 20:58:00,31.1,29.8,29.69,NW,317,1.0,3.0,95,0.00,,,0.67,meteohub,2013-03-20 00:58:00,
2013-03-19 21:04:00,31.1,29.8,29.69,WNW,294,1.0,3.0,95,0.00,,,0.67,meteohub,2013-03-20 01:04:00,
2013-03-19 21:09:00,31.1,29.8,29.69,WNW,294,2.0,3.0,95,0.00,,,0.67,meteohub,2013-03-20 01:09:00,
2013-03-19 21:14:00,30.9,29.7,29.70,WNW,295,2.0,3.0,95,0.00,,,0.67,meteohub,2013-03-20 01:14:00,
2013-03-19 21:19:00,30.9,29.7,29.70,WNW,298,3.0,3.0,95,0.00,,,0.67,meteohub,2013-03-20 01:19:00,
2013-03-19 21:24:00,30.9,29.7,29.70,NW,317,1.0,3.0,95,0.00,,,0.67,meteohub,2013-03-20 01:24:00,
2013-03-19 21:29:00,30.9,29.7,29.70,NW,309,3.0,4.0,95,0.00,,,0.67,meteohub,2013-03-20 01:29:00,
2013-03-19 21:34:00,30.7,29.5,29.70,NW,305,3.0,4.0,95,0.00,,,0.67,meteohub,2013-03-20 01:34:00,
2013-03-19 21:39:00,30.7,29.5,29.70,NNW,328,2.0,4.0,95,0.00,,,0.67,meteohub,2013-03-20 01:39:00,
2013-03-19 21:44:00,30.7,29.5,29.70,NW,315,0.0,6.0,95,0.00,,,0.67,meteohub,2013-03-20 01:44:00,
2013-03-19 21:49:00,30.6,29.3,29.70,NNW,337,0.0,6.0,95,0.00,,,0.67,meteohub,2013-03-20 01:49:00,
2013-03-19 21:54:00,30.6,29.3,29.70,NNW,337,0.0,4.0,95,0.00,,,0.67,meteohub,2013-03-20 01:54:00,
2013-03-19 21:59:00,30.4,29.1,29.70,NNW,337,0.0,3.0,95,0.00,,,0.67,meteohub,2013-03-20 01:59:00,
2013-03-19 22:04:00,30.2,28.9,29.70,NNW,337,0.0,3.0,95,0.00,,,0.67,meteohub,2013-03-20 02:04:00,
2013-03-19 22:09:00,30.0,28.8,29.70,NNW,337,0.0,2.0,95,0.00,,,0.67,meteohub,2013-03-20 02:09:00,
2013-03-19 22:14:00,30.0,28.8,29.70,NNW,337,0.0,1.0,95,0.00,,,0.67,meteohub,2013-03-20 02:14:00,
2013-03-19 22:19:00,29.8,28.6,29.70,NW,308,0.0,1.0,95,0.00,,,0.67,meteohub,2013-03-20 02:19:00,
2013-03-19 22:24:00,29.8,28.6,29.70,NNW,331,0.0,3.0,95,0.00,,,0.67,meteohub,2013-03-20 02:24:00,
2013-03-19 22:29:00,29.7,28.2,29.70,NNW,328,0.0,3.0,94,0.00,,,0.67,meteohub,2013-03-20 02:29:00,
2013-03-19 22:34:00,29.5,28.0,29.70,NNW,328,0.0,3.0,94,0.00,,,0.67,meteohub,2013-03-20 02:34:00,
2013-03-19 22:39:00,29.3,27.9,29.70,NNW,328,0.0,3.0,94,0.00,,,0.67,meteohub,2013-03-20 02:39:00,
2013-03-19 22:44:00,29.1,27.7,29.70,NNW,328,1.0,2.0,94,0.00,,,0.67,meteohub,2013-03-20 02:44:00,
2013-03-19 22:49:00,28.9,27.5,29.70,NW,320,0.0,3.0,94,0.00,,,0.67,meteohub,2013-03-20 02:49:00,
2013-03-19 22:54:00,28.8,27.3,29.70,North,355,1.0,3.0,94,0.00,,,0.67,meteohub,2013-03-20 02:54:00,
2013-03-19 22:59:00,28.6,27.1,29.69,North,355,0.0,3.0,94,0.00,,,0.67,meteohub,2013-03-20 02:59:00,
2013-03-19 23:04:00,28.4,27.0,29.69,NNW,348,2.0,3.0,94,0.00,,,0.67,meteohub,2013-03-20 03:04:00,
2013-03-19 23:09:00,28.2,26.4,29.70,NW,306,1.0,2.0,93,0.00,,,0.67,meteohub,2013-03-20 03:09:00,
2013-03-19 23:14:00,28.2,26.4,29.70,NW,324,1.0,3.0,93,0.00,,,0.67,meteohub,2013-03-20 03:14:00,
2013-03-19 23:19:00,28.0,26.2,29.70,NW,324,1.0,4.0,93,0.00,,,0.67,meteohub,2013-03-20 03:19:00,
2013-03-19 23:24:00,28.0,26.2,29.70,West,279,2.0,4.0,93,0.00,,,0.67,meteohub,2013-03-20 03:24:00,
2013-03-19 23:29:00,28.0,26.2,29.70,WNW,300,0.0,4.0,93,0.00,,,0.67,meteohub,2013-03-20 03:29:00,
2013-03-19 23:34:00,28.0,26.2,29.70,NW,315,3.0,3.0,93,0.00,,,0.67,meteohub,2013-03-20 03:34:00,
2013-03-19 23:39:00,28.0,26.2,29.70,WNW,303,1.0,3.0,93,0.00,,,0.67,meteohub,2013-03-20 03:39:00,
2013-03-19 23:44:00,28.2,26.4,29.71,WNW,303,1.0,3.0,93,0.00,,,0.67,meteohub,2013-03-20 03:44:00,
2013-03-19 23:49:00,28.2,26.4,29.71,WNW,303,0.0,3.0,93,0.00,,,0.67,meteohub,2013-03-20 03:49:00,
2013-03-19 23:54:00,28.2,26.4,29.71,WNW,303,0.0,2.0,93,0.00,,,0.67,meteohub,2013-03-20 03:54:00,
2013-03-19 23:59:00,28.4,26.6,29.71,WNW,303,0.0,2.0,93,0.00,,,0.67,meteohub,2013-03-20 03:59:00,